Location: Cahas Mountain Overlook
(37.0833°N, 80.1000°W)
Time: 11:51:07
(UTC-04:00)

Vanguard 1 Rocket - Pass Details

Date: 13 February 2026
Orbit: 653 x 4214 km, 34.3° (Epoch: 15 March)

Event Time Altitude Azimuth Distance (km) Brightness Sun altitude
Rises 22:20:02 0° 285° (WNW) 7,899 12.8 -51.5°
Reaches altitude 10° 22:26:28 10° 275° (W) 7,180 12.3 -52.7°
Maximum altitude 22:45:22 28° 228° (SW) 5,919 11.4 -55.8°
Enters shadow 22:52:38 24° 205° (SSW) 5,927 11.3 -56.9°
